Wainwright, AK

8:49 PM AKDT on April 22, 2018 (GMT -0800)
Wainwright

Weather History for PAWI - April, 2013

Change the Weather History Date:

Friday, April 19, 2013

  Actual Average (PABR) Record (PABR)
Temperature  
Mean Temperature 0 °F -  
Max Temperature 12 °F 8 °F 35 °F (1967)
Min Temperature -13 °F -4 °F -27 °F (1960)
Degree Days  
Heating Degree Days 66    
Moisture  
Dew Point -5 °F    
Average Humidity 78    
Maximum Humidity 84    
Minimum Humidity 71    
Precipitation  
Precipitation 0.00 in - - ()
Sea Level Pressure  
Sea Level Pressure 30.47 in    
Wind  
Wind Speed 4 mph (South)    
Max Wind Speed 10 mph    
Max Gust Speed -    
Visibility 10 miles    
Events      
Averages and records for this station are not official NWS values.
T = Trace of Precipitation, MM = Missing Value Source: NWS Daily Summary

Daily Weather History Graph

Daily Weather History Graph

Search for Another Location

Airport or City:

Astronomy

Apr. 19, 2013 Rise Set
Actual Time 6:06 AM AKDT 11:14 PM AKDT
Civil Twilight 4:26 AM AKDT 12:59 AM AKDT
Nautical Twilight Sun does not set Sun does not set
Astronomical Twilight Sun does not set Sun does not set
Moon 1:37 PM AKDT (4/19) 6:09 AM AKDT (4/19)
Length of Visible Light 20h 32m
Length of Day
17h 07m
Waxing Gibbous, 63% of the Moon is Illuminated
Apr 19
Waxing Gibbous
Apr 25
Full
May 2
Last Quarter
May 9
New
May 17
First Quarter

Hourly Weather History & Observations

Time (AKDT) Temp. Windchill Dew Point Humidity Pressure Visibility Wind Dir Wind Speed Gust Speed Precip Events Conditions
12:53 AM -7.1 °F -18.1 °F -13.0 °F 75% 30.56 in 10.0 mi ESE 4.6 mph - N/A   Clear
1:53 AM -9.0 °F -20.4 °F -14.1 °F 79% 30.56 in 10.0 mi SSE 4.6 mph - N/A   Clear
2:53 AM -8.0 °F - -15.0 °F 71% 30.55 in 10.0 mi Calm Calm - N/A   Clear
3:53 AM -9.0 °F - -14.1 °F 79% 30.55 in 10.0 mi Calm Calm - N/A   Clear
4:53 AM -9.9 °F - -16.1 °F 74% 30.54 in 10.0 mi Calm Calm - N/A   Clear
5:53 AM -9.9 °F - -16.1 °F 74% 30.53 in 10.0 mi Calm Calm - N/A   Clear
6:53 AM -11.9 °F -21.5 °F -17.0 °F 78% 30.51 in 10.0 mi SE 3.5 mph - N/A   Clear
7:53 AM -13.0 °F -22.7 °F -18.0 °F 78% 30.51 in 10.0 mi SSE 3.5 mph - N/A   Clear
8:53 AM -11.0 °F -22.8 °F -18.0 °F 71% 30.50 in 10.0 mi SE 4.6 mph - N/A   Clear
9:53 AM -9.0 °F -18.2 °F -14.1 °F 79% 30.49 in 10.0 mi South 3.5 mph - N/A   Clear
10:53 AM -6.0 °F -14.7 °F -11.0 °F 79% 30.48 in 10.0 mi SSE 3.5 mph - N/A   Clear
11:53 AM -0.9 °F -8.9 °F -6.0 °F 79% 30.48 in 10.0 mi South 3.5 mph - N/A   Clear
12:53 PM 1.9 °F -7.6 °F -2.0 °F 83% 30.47 in 10.0 mi South 4.6 mph - N/A   Clear
1:53 PM 5.0 °F -5.6 °F 1.0 °F 84% 30.46 in 10.0 mi SSW 5.8 mph - N/A   Clear
2:53 PM 7.0 °F -5.7 °F 1.9 °F 80% 30.45 in 10.0 mi SSW 8.1 mph - N/A   Clear
3:53 PM 9.0 °F -4.2 °F 3.9 °F 80% 30.44 in 10.0 mi SSW 9.2 mph - N/A   Clear
4:53 PM 10.9 °F -1.8 °F 6.1 °F 81% 30.42 in 10.0 mi SSW 9.2 mph - N/A   Clear
5:53 PM 12.9 °F 0.7 °F 7.0 °F 77% 30.41 in 10.0 mi SW 9.2 mph - N/A   Clear
6:53 PM 12.0 °F 1.5 °F 7.0 °F 80% 30.40 in 10.0 mi SSW 6.9 mph - N/A   Clear
7:53 PM 10.9 °F 0.2 °F 6.1 °F 81% 30.39 in 10.0 mi SW 6.9 mph - N/A   Clear
8:53 PM 12.9 °F 1.6 °F 7.0 °F 77% 30.38 in 10.0 mi SW 8.1 mph - N/A   Clear
9:53 PM 10.9 °F -0.8 °F 6.1 °F 81% 30.37 in 10.0 mi SW 8.1 mph - N/A   Mostly Cloudy
10:53 PM 6.1 °F -5.6 °F 1.9 °F 83% 30.36 in 10.0 mi SSW 6.9 mph - N/A   Scattered Clouds
11:53 PM 7.0 °F -7.5 °F 1.9 °F 80% 30.35 in 10.0 mi SSW 10.4 mph - N/A   Partly Cloudy